SCP
0 0 0 0 0 1 1 1 1 1 1 1 0 0 0 0 0 0 0 0 0 0 0 0 0 0 0 0 0 0 0 0 0 0 0 0 0 0 0 0 0 0 0
0 0 0 0 1 1 1 1 1 1 1 1 1 1 1 1 0 0 0 0 0 0 0 0 0 0 0 0 0 0 0 0 0 0 0 0 0 0 0 0 0 0 0
1 0 0 0 1 1 1 1 1 1 1 1 1 1 1 0 0 0 0 0 0 0 0 0 0 0 0 0 0 0 0 0 0 0 0 0 0 0 0 0 0 0 0
1 1 0 0 1 1 1 1 1 1 0 0 0 0 0 0 0 0 0 0 0 0 0 0 0 0 0 0 0 0 0 0 0 0 0 0 0 0 0 0 0 0 0
1 0 0 0 1 1 1 1 1 0 0 0 0 0 0 0 0 0 0 0 0 0 0 0 0 0 0 0 0 0 0 0 0 0 0 0 0 0 0 0 0 0 0
0 0 0 0 0 0 1 1 1 0 0 0 0 0 0 0 0 0 0 0 0 0 0 0 0 0 0 0 0 0 0 0 0 0 0 0 0 0 0 0 0 0 0
0 0 0 0 0 0 0 0 0 0 0 0 0 0 0 0 0 0 0 0 0 0 0 0 0 0 0 0 0 0 0 0 0 0 0 0 0 0 0 0 0 0 0
0 0 0 0 0 0 0 0 0 0 0 0 0 0 0 0 0 0 0 0 0 0 0 0 0 0 0 0 0 0 0 0 0 0 0 0 0 0 0 0 0 0 0
0 0 0 0 0 0 0 0 0 0 0 0 0 0 0 0 0 0 0 0 0 0 0 0 0 0 0 0 0 0 0 0 0 0 0 0 0 0 0 0 0 0 0
0 0 0 0 0 0 0 0 0 0 0 0 0 0 0 0 0 0 0 0 0 0 0 0 0 0 0 0 0 0 0 0 0 0 0 0 0 0 0 0 0 0 0
0 0 0 0 0 0 0 0 0 0 0 0 0 0 0 0 0 0 0 0 0 0 0 0 0 0 0 0 0 0 0 0 0 0 0 0 0 0 0 0 0 0 0
0 0 0 0 0 0 0 0 0 0 0 0 0 0 0 0 0 0 0 0 0 0 0 0 0 0 0 0 0 0 0 0 0 0 0 0 0 0 0 0 0 0 0
0 0 0 0 0 0 0 0 0 0 0 0 0 0 0 0 0 0 0 0 0 0 0 0 0 0 0 0 0 0 0 0 0 0 0 0 0 0 0 0 0 0 0
0 0 0 0 0 0 0 0 0 0 0 0 0 0 0 0 0 0 0 0 0 0 0 0 0 0 0 0 0 0 0 0 0 0 0 0 0 0 0 0 0 0 0
0 0 0 0 0 0 0 0 0 0 0 0 0 0 0 0 0 0 0 0 0 0 0 0 0 0 0 0 0 0 0 0 0 0 0 0 0 0 0 0 0 0 0
0 0 0 0 0 0 0 0 0 0 0 0 0 0 0 0 0 0 0 0 0 0 0 0 0 0 0 0 0 0 0 0 0 0 0 0 0 1 1 0 0 0 0
0 0 0 0 0 0 0 0 0 0 0 0 0 0 0 0 0 0 0 0 0 0 0 0 0 0 0 0 0 0 0 0 0 0 0 0 0 0 0 0 0 0 0
0 0 0 0 0 0 0 0 0 0 0 0 0 0 0 0 0 0 0 0 0 0 0 0 0 0 0 0 0 0 0 0 0 0 0 0 0 0 0 0 0 0 0
0 0 0 0 0 0 0 0 0 0 0 0 0 0 0 0 0 0 0 0 0 0 0 0 0 0 0 0 0 0 0 0 0 0 0 0 0 0 0 0 0 0 0
1 1 1 1 1 1 1 1 1 0 0 0 0 0 0 0 0 0 0 0 0 0 0 0 0 0 0 0 0 0 0 0 0 0 0 0 0 0 0 0 0 0 0
1 1 1 1 1 1 1 1 1 1 1 0 0 0 0 0 0 0 0 0 0 0 0 0 0 0 0 0 0 0 0 0 0 0 0 0 0 0 0 0 0 0 0
1 1 1 1 1 1 1 1 1 1 1 0 0 0 0 0 0 0 0 0 0 0 0 0 0 0 0 0 0 0 0 0 0 0 0 0 0 0 0 0 0 0 0
1 1 1 1 1 1 1 1 1 1 1 0 0 0 0 0 0 0 0 0 0 0 0 0 0 0 0 0 0 0 0 0 0 0 0 0 0 0 0 0 0 0 0
1 1 1 1 1 1 1 1 1 1 1 0 0 0 0 0 0 0 0 0 0 0 0 0 0 0 0 0 0 0 0 0 0 0 0 0 0 0 0 0 0 0 0
0 0 0 1 1 1 1 1 1 1 1 0 0 0 0 0 0 0 0 0 0 0 0 0 0 0 0 0 0 0 0 0 0 0 0 0 0 0 0 0 0 0 0
0 0 0 0 0 1 1 1 1 1 0 0 0 0 0 0 0 0 0 0 0 0 0 0 0 0 0 0 0 0 0 0 0 0 0 0 0 0 0 0 0 0 0
Wind_Speed
8 10 17 17 16 15 16 17 18 19 19 20 20 19 18 18 16 16 15 15 14 14 14 14 14 14 14 14 14 14 14 14 14 14 14 15 15 15 15 15 14 12 16
13 13 18 17 17 16 16 17 18 18 18 19 18 18 17 17 15 15 14 14 14 14 14 14 14 14 13 13 13 13 13 12 12 12 13 14 15 14 14 14 13 10 15
15 13 16 17 17 17 17 17 18 18 18 18 17 17 16 15 15 14 14 13 13 13 13 13 13 13 12 12 12 12 12 11 11 11 11 7 10 14 14 14 14 14 14
15 12 13 18 17 18 18 17 18 18 18 17 17 16 16 15 14 13 14 13 13 12 12 12 12 12 11 11 10 10 10 10 10 10 5 5 7 13 13 13 13 14 14
13 11 13 19 18 18 18 18 18 18 18 17 16 16 15 14 13 12 13 12 12 11 11 11 11 10 10 9 9 8 8 9 9 8 5 4 5 11 13 13 13 13 13
12 10 13 19 18 17 18 18 18 18 17 16 16 15 14 13 12 11 11 11 10 10 9 9 9 8 8 8 7 6 6 7 7 5 5 5 5 10 12 12 12 12 12
12 9 11 16 17 17 17 17 17 16 15 14 14 13 12 11 11 10 10 10 9 8 8 8 7 6 6 6 5 4 4 5 5 4 5 5 5 9 11 12 12 11 11
12 10 10 16 18 17 16 16 15 14 13 13 12 12 11 10 9 9 9 8 7 7 6 6 5 4 4 4 3 2 2 3 4 5 5 5 6 8 10 10 11 10 11
10 10 8 9 13 16 15 14 14 13 12 12 11 11 10 10 9 9 7 6 6 5 4 4 3 2 2 2 1 0 1 2 3 3 5 4 6 9 10 10 10 9 10
9 9 8 7 7 7 9 14 15 14 13 12 12 11 11 10 9 8 6 5 5 4 3 2 1 1 1 1 1 1 2 1 2 2 3 4 8 9 10 10 9 9 9
10 8 7 7 6 6 6 10 11 13 12 12 10 11 9 4 4 4 5 6 5 4 2 1 1 1 1 2 3 3 1 1 2 2 2 6 9 10 10 9 9 8 8
13 12 8 8 7 7 7 5 4 5 6 5 4 5 4 3 2 3 3 6 5 4 2 1 1 1 1 1 2 2 0 2 2 2 3 8 9 10 10 9 8 7 7
12 11 10 9 8 8 4 4 3 3 4 4 5 5 4 3 2 2 1 1 2 2 0 1 2 1 0 1 1 1 2 2 2 2 4 8 8 9 9 8 8 7 7
10 11 10 10 8 7 5 5 5 4 4 4 4 5 4 3 3 2 1 1 1 0 1 0 0 0 1 1 1 1 2 2 2 1 2 7 7 7 8 8 7 7 7
11 11 11 11 10 8 5 5 6 5 5 5 4 5 5 4 4 3 2 2 2 2 1 1 1 0 0 1 0 1 1 2 2 2 1 5 6 5 6 7 7 7 6
12 12 10 11 10 9 7 6 5 5 5 5 5 6 6 5 4 4 3 3 2 2 2 2 2 1 1 1 2 2 2 2 2 1 1 2 5 5 5 6 6 6 6
11 11 11 11 10 10 8 8 5 5 5 5 5 6 7 6 5 4 4 3 3 3 3 3 3 2 2 2 3 4 3 3 3 3 2 2 1 2 3 4 4 4 4
9 10 11 11 11 10 8 7 4 5 5 5 5 5 7 7 6 5 4 3 3 3 3 3 3 3 2 2 3 3 3 3 4 3 3 3 2 2 1 0 1 3 4
9 9 10 9 11 10 8 6 5 4 5 4 4 4 5 6 6 4 3 3 4 3 3 3 2 2 2 2 3 3 3 3 3 3 4 4 3 3 2 2 2 2 3
6 7 8 8 8 9 7 5 4 3 3 2 3 3 5 4 6 5 4 4 4 4 3 3 4 3 2 2 3 3 3 3 3 4 3 3 3 3 3 3 3 3 3
3 5 6 7 7 7 6 6 5 4 3 2 2 2 3 4 5 5 4 4 4 4 4 5 4 4 3 1 2 2 3 4 4 4 3 3 4 4 4 3 3 2 2
1 1 3 5 5 7 6 4 3 4 3 3 3 3 3 3 4 4 5 4 4 4 5 4 3 3 2 2 2 2 1 1 2 3 3 3 3 3 4 4 3 3 3
7 4 1 2 4 5 6 5 5 5 3 2 3 3 5 5 5 4 4 4 4 4 4 3 3 4 3 2 2 2 3 3 1 1 3 3 4 3 3 3 5 4 4
9 6 4 3 3 4 5 6 7 5 4 4 4 5 6 7 6 6 5 5 5 4 4 4 3 3 4 2 2 3 3 2 2 1 1 2 3 4 4 4 4 5 5
10 9 7 7 6 6 5 5 5 5 5 6 7 8 6 6 7 7 7 6 6 5 6 6 5 5 3 3 2 2 3 3 3 2 1 2 2 3 3 4 4 4 5
12 11 10 11 11 10 9 8 8 9 9 9 8 7 6 6 6 8 8 8 7 7 7 7 7 8 7 6 5 4 2 2 2 2 1 1 1 2 2 3 3 4 4
Wind_Direction
152 155 151 148 144 136 128 121 118 117 118 120 122 124 126 126 126 125 124 122 118 115 111 108 106 105 106 107 108 110 112 114 116 118 121 121 117 114 114 113 111 111 116
144 151 151 149 145 139 132 126 123 121 121 121 122 123 124 125 124 124 123 122 119 117 114 112 110 109 109 109 110 112 113 114 114 115 119 123 123 120 120 118 117 118 117
140 148 151 150 146 141 136 131 127 125 124 123 124 124 125 125 124 124 124 122 120 119 117 115 113 112 111 111 111 111 110 110 108 107 105 107 125 127 127 125 122 120 119
140 144 150 151 148 143 138 134 131 130 129 128 128 129 129 128 128 128 127 125 122 121 119 117 117 116 114 113 113 113 115 116 116 113 104 114 126 132 131 129 126 123 121
140 143 154 153 150 145 141 138 136 135 135 135 134 134 133 133 132 131 130 128 125 123 121 120 120 120 119 116 115 116 120 126 128 121 118 116 122 137 136 135 133 129 126
143 146 156 154 152 148 145 143 142 141 141 140 139 138 138 137 135 134 134 132 130 127 124 122 122 122 120 117 115 117 122 127 124 125 131 133 137 145 143 142 138 135 133
145 147 154 154 154 153 151 149 148 146 145 144 143 142 142 141 140 140 140 138 136 133 129 126 124 121 115 111 111 115 127 133 124 133 139 143 153 153 149 146 142 139 137
146 146 153 158 159 159 157 154 152 150 148 147 146 146 146 146 145 146 146 145 144 141 136 130 126 119 108 103 107 118 143 143 132 143 145 152 165 159 152 147 144 143 140
144 146 151 160 163 164 161 157 155 153 153 152 152 152 153 153 154 156 156 155 154 152 147 138 129 112 94 85 86 105 205 168 127 148 159 161 171 164 155 152 152 149 145
146 151 153 154 154 157 162 164 162 160 159 160 161 163 164 165 167 169 165 171 174 175 171 158 137 81 45 19 336 295 267 133 147 164 156 171 174 169 161 160 160 155 151
161 162 159 154 151 151 157 171 168 168 168 168 170 172 168 159 162 171 179 192 199 202 204 206 255 313 346 347 322 295 287 140 178 178 171 181 178 176 169 168 168 164 159
173 175 169 164 159 156 166 159 154 159 161 159 155 163 149 142 161 171 195 210 218 224 239 268 295 332 20 347 312 306 271 202 196 190 193 189 185 182 176 173 174 173 170
174 175 177 172 169 167 159 151 152 145 149 152 157 155 143 140 151 160 149 231 251 254 37 22 23 36 2 261 268 259 227 203 196 195 196 193 190 186 181 177 180 181 179
173 180 177 176 175 174 159 159 163 162 166 169 167 159 152 157 170 178 183 197 198 154 146 126 113 319 299 274 233 228 210 187 178 180 197 191 186 186 185 184 185 187 185
180 182 180 180 181 177 167 169 175 176 178 177 175 173 169 173 184 190 197 194 196 179 174 187 195 208 343 0 108 147 153 155 155 157 173 178 174 183 190 187 186 187 186
186 185 180 183 183 178 177 178 177 179 175 174 182 186 182 181 184 189 197 198 198 185 177 173 158 137 89 79 75 89 102 108 115 120 110 156 164 172 183 184 187 188 186
188 184 183 186 183 183 185 185 178 177 175 182 186 186 187 186 187 189 192 197 193 169 154 138 121 102 96 82 71 66 68 70 84 83 75 65 96 151 169 179 186 192 194
183 186 190 193 187 190 189 183 176 173 177 185 181 183 189 189 187 185 188 193 172 152 147 137 123 98 84 83 73 55 57 60 59 59 58 51 42 42 37 111 162 192 204
189 188 190 193 185 188 186 176 171 164 176 180 173 177 182 183 181 174 176 171 152 141 138 134 105 104 105 96 84 60 45 48 45 47 42 37 33 27 20 359 337 270 239
194 191 196 197 188 177 169 157 155 152 158 157 165 172 168 168 164 158 156 152 143 134 124 115 105 82 89 99 87 66 44 37 39 41 33 32 27 24 21 10 0 342 320
176 187 191 194 188 171 171 173 171 170 150 141 128 130 142 144 144 143 140 134 138 140 137 132 115 100 76 61 90 65 36 38 43 37 33 38 27 21 25 19 5 357 343
59 176 176 194 183 179 178 167 134 124 119 108 92 78 82 104 118 129 135 140 139 129 126 128 125 116 84 41 112 127 125 24 26 31 30 40 30 28 29 23 13 4 352
25 12 50 174 179 173 156 136 124 110 101 97 91 79 61 65 70 83 108 113 116 119 126 125 128 131 132 80 48 141 162 191 139 27 30 38 31 37 28 22 26 13 0
24 22 37 85 119 132 138 152 150 157 150 124 104 84 66 59 68 72 77 85 87 88 97 99 89 102 123 126 73 47 55 99 138 131 35 22 33 41 32 31 27 24 17
29 32 38 55 67 83 97 112 117 111 102 101 97 91 78 63 61 67 70 76 77 76 77 75 75 74 79 100 101 88 68 53 54 112 120 2 16 25 28 30 31 27 21
35 39 46 54 52 55 68 81 94 104 108 106 97 93 80 69 60 61 69 70 72 71 71 71 69 69 69 74 71 68 79 83 70 79 99 42 348 346 6 21 27 22 18